TimeCST,TemperatureF,Dew PointF,Humidity,Sea Level PressureIn,VisibilityMPH,Wind Direction,Wind SpeedMPH,Gust SpeedMPH,PrecipitationIn,Events,Conditions,WindDirDegrees,DateUTC
12:15 AM,14.0,8.6,79,30.15,3.0,SW,4.6,-,N/A,,Overcast,220,2013-01-23 06:15:00
12:35 AM,14.0,8.6,79,30.15,8.0,Calm,Calm,-,N/A,,Overcast,0,2013-01-23 06:35:00
12:55 AM,15.8,8.6,73,30.14,5.0,SW,3.5,-,N/A,,Overcast,230,2013-01-23 06:55:00
1:15 AM,15.8,8.6,73,30.14,7.0,SW,3.5,-,N/A,,Overcast,230,2013-01-23 07:15:00
1:35 AM,15.8,8.6,73,30.13,10.0,Calm,Calm,-,N/A,,Overcast,0,2013-01-23 07:35:00
1:55 AM,15.8,10.4,79,30.13,10.0,Calm,Calm,-,N/A,,Overcast,0,2013-01-23 07:55:00
2:15 AM,15.8,10.4,79,30.12,10.0,WSW,3.5,-,N/A,,Overcast,240,2013-01-23 08:15:00
2:35 AM,15.8,10.4,79,30.13,10.0,West,3.5,-,N/A,,Overcast,270,2013-01-23 08:35:00
2:55 AM,15.8,10.4,79,30.13,10.0,West,5.8,-,N/A,,Overcast,270,2013-01-23 08:55:00
3:15 AM,15.8,10.4,79,30.12,10.0,West,4.6,-,N/A,,Overcast,280,2013-01-23 09:15:00
3:35 AM,15.8,10.4,79,30.12,10.0,West,5.8,-,N/A,,Overcast,270,2013-01-23 09:35:00
3:55 AM,15.8,10.4,79,30.12,10.0,NW,4.6,-,N/A,,Overcast,320,2013-01-23 09:55:00
4:15 AM,15.8,10.4,79,30.12,10.0,WNW,3.5,-,N/A,,Overcast,300,2013-01-23 10:15:00
4:35 AM,15.8,10.4,79,30.12,10.0,NNW,3.5,-,N/A,,Overcast,330,2013-01-23 10:35:00
4:55 AM,14.0,8.6,79,30.12,10.0,NW,4.6,-,N/A,,Overcast,310,2013-01-23 10:55:00
5:15 AM,14.0,8.6,79,30.12,10.0,NNW,4.6,-,N/A,,Scattered Clouds,330,2013-01-23 11:15:00
5:35 AM,12.2,6.8,79,30.12,10.0,NW,5.8,-,N/A,,Clear,320,2013-01-23 11:35:00
5:55 AM,10.4,6.8,85,30.12,10.0,NW,8.1,-,N/A,,Clear,310,2013-01-23 11:55:00
6:15 AM,10.4,6.8,85,30.13,10.0,WNW,8.1,-,N/A,,Clear,290,2013-01-23 12:15:00
6:35 AM,10.4,5.0,79,30.14,10.0,WNW,9.2,-,N/A,,Clear,300,2013-01-23 12:35:00
6:55 AM,8.6,3.2,79,30.14,10.0,WNW,8.1,-,N/A,,Clear,300,2013-01-23 12:55:00
7:15 AM,8.6,3.2,79,30.14,10.0,WNW,8.1,-,N/A,,Clear,300,2013-01-23 13:15:00
7:35 AM,6.8,1.4,79,30.15,10.0,NW,9.2,-,N/A,,Clear,310,2013-01-23 13:35:00
7:55 AM,6.8,3.2,85,30.16,10.0,NW,9.2,-,N/A,,Partly Cloudy,310,2013-01-23 13:55:00
8:15 AM,8.6,3.2,79,30.17,10.0,WNW,9.2,-,N/A,,Partly Cloudy,300,2013-01-23 14:15:00
8:35 AM,8.6,5.0,85,30.17,10.0,NW,11.5,-,N/A,,Clear,320,2013-01-23 14:35:00
8:55 AM,12.2,6.8,79,30.19,10.0,NNW,12.7,-,N/A,,Clear,330,2013-01-23 14:55:00
9:15 AM,10.4,5.0,79,30.20,10.0,NNW,16.1,-,N/A,,Clear,330,2013-01-23 15:15:00
9:35 AM,10.4,5.0,79,30.22,10.0,NNW,13.8,-,N/A,,Clear,330,2013-01-23 15:35:00
9:55 AM,10.4,3.2,73,30.23,4.0,NNW,23.0,-,N/A,,Clear,330,2013-01-23 15:55:00
10:15 AM,10.4,1.4,67,30.24,7.0,NNW,23.0,-,N/A,,Partly Cloudy,330,2013-01-23 16:15:00
10:35 AM,10.4,1.4,67,30.26,8.0,NNW,23.0,-,N/A,,Clear,340,2013-01-23 16:35:00
10:55 AM,10.4,1.4,67,30.27,10.0,NNW,23.0,-,N/A,,Clear,330,2013-01-23 16:55:00
11:15 AM,10.4,1.4,67,30.28,10.0,NNW,20.7,26.5,N/A,,Clear,330,2013-01-23 17:15:00
11:35 AM,10.4,-0.4,62,30.28,10.0,NNW,21.9,27.6,N/A,,Clear,330,2013-01-23 17:35:00
11:55 AM,8.6,-0.4,67,30.29,10.0,NNW,25.3,29.9,N/A,,Clear,330,2013-01-23 17:55:00
12:15 PM,8.6,1.4,73,30.29,2.5,NNW,23.0,28.8,N/A,,Mostly Cloudy,330,2013-01-23 18:15:00
12:35 PM,8.6,1.4,73,30.30,2.5,NNW,21.9,27.6,N/A,,Mostly Cloudy,340,2013-01-23 18:35:00
12:55 PM,8.6,-0.4,67,30.31,5.0,NNW,23.0,27.6,N/A,,Scattered Clouds,330,2013-01-23 18:55:00
1:15 PM,6.8,-2.2,67,30.31,10.0,NNW,24.2,-,N/A,,Partly Cloudy,340,2013-01-23 19:15:00
1:35 PM,6.8,-2.2,67,30.31,9.0,NNW,23.0,27.6,N/A,,Mostly Cloudy,340,2013-01-23 19:35:00
1:55 PM,6.8,-2.2,67,30.33,10.0,NNW,24.2,28.8,N/A,,Scattered Clouds,340,2013-01-23 19:55:00
2:15 PM,6.8,-2.2,67,30.34,10.0,NNW,25.3,32.2,N/A,,Mostly Cloudy,330,2013-01-23 20:15:00
2:35 PM,6.8,-5.8,56,30.36,10.0,NNW,21.9,29.9,N/A,,Mostly Cloudy,340,2013-01-23 20:35:00
2:55 PM,5.0,-5.8,61,30.36,9.0,NNW,24.2,29.9,N/A,,Overcast,340,2013-01-23 20:55:00
3:15 PM,3.2,-5.8,66,30.38,3.0,NNW,20.7,-,N/A,,Overcast,340,2013-01-23 21:15:00
3:35 PM,3.2,-7.6,61,30.39,9.0,North,21.9,32.2,N/A,,Mostly Cloudy,350,2013-01-23 21:35:00
3:55 PM,3.2,-5.8,66,30.40,4.0,North,21.9,32.2,N/A,,Mostly Cloudy,350,2013-01-23 21:55:00
4:15 PM,1.4,-7.6,66,30.41,8.0,North,20.7,27.6,N/A,,Overcast,350,2013-01-23 22:15:00
4:35 PM,1.4,-7.6,66,30.43,10.0,North,21.9,-,N/A,,Scattered Clouds,350,2013-01-23 22:35:00
4:55 PM,1.4,-7.6,66,30.45,10.0,NNW,19.6,25.3,N/A,,Clear,340,2013-01-23 22:55:00
5:15 PM,-0.4,-9.4,66,30.46,10.0,NNW,21.9,-,N/A,,Clear,340,2013-01-23 23:15:00
5:35 PM,-0.4,-7.6,72,30.46,10.0,NNW,18.4,23.0,N/A,,Clear,340,2013-01-23 23:35:00
5:55 PM,-0.4,-9.4,66,30.47,9.0,NNW,16.1,-,N/A,,Scattered Clouds,340,2013-01-23 23:55:00
6:15 PM,-0.4,-11.2,60,30.48,10.0,North,21.9,-,N/A,,Partly Cloudy,350,2013-01-24 00:15:00
6:35 PM,-2.2,-11.2,66,30.48,10.0,North,21.9,-,N/A,,Clear,350,2013-01-24 00:35:00
6:55 PM,-2.2,-11.2,66,30.49,10.0,North,18.4,-,N/A,,Clear,350,2013-01-24 00:55:00
7:15 PM,-2.2,-11.2,66,30.49,10.0,North,17.3,25.3,N/A,,Clear,350,2013-01-24 01:15:00
7:35 PM,-4.0,-14.8,60,30.50,10.0,North,16.1,20.7,N/A,,Clear,350,2013-01-24 01:35:00
7:55 PM,-5.8,-14.8,65,30.50,10.0,North,20.7,24.2,N/A,,Clear,350,2013-01-24 01:55:00
8:15 PM,-5.8,-16.6,60,30.51,10.0,North,20.7,26.5,N/A,,Clear,360,2013-01-24 02:15:00
8:35 PM,-5.8,-14.8,65,30.52,10.0,North,16.1,-,N/A,,Clear,350,2013-01-24 02:35:00
8:55 PM,-5.8,-16.6,60,30.53,10.0,North,17.3,-,N/A,,Clear,350,2013-01-24 02:55:00
9:15 PM,-7.6,-16.6,65,30.53,10.0,North,16.1,19.6,N/A,,Clear,360,2013-01-24 03:15:00
9:35 PM,-7.6,-16.6,65,30.54,10.0,North,15.0,-,N/A,,Clear,360,2013-01-24 03:35:00
9:55 PM,-7.6,-16.6,65,30.55,10.0,North,11.5,-,N/A,,Clear,350,2013-01-24 03:55:00
10:15 PM,-7.6,-16.6,65,30.55,10.0,North,13.8,-,N/A,,Clear,350,2013-01-24 04:15:00
10:35 PM,-7.6,-16.6,65,30.55,10.0,North,13.8,-,N/A,,Clear,360,2013-01-24 04:35:00
10:55 PM,-7.6,-14.8,71,30.57,10.0,North,12.7,-,N/A,,Clear,350,2013-01-24 04:55:00
11:15 PM,-7.6,-16.6,65,30.57,10.0,North,11.5,-,N/A,,Clear,350,2013-01-24 05:15:00
11:35 PM,-7.6,-18.4,59,30.59,10.0,NNW,10.4,-,N/A,,Clear,340,2013-01-24 05:35:00
11:55 PM,-9.4,-16.6,71,30.59,10.0,North,9.2,-,N/A,,Clear,350,2013-01-24 05:55:00